DW4070 Weather Reports


time (UTC)temp
F
wind
direction
speed
knots
gust
knots
rain 1hr
in
rain 24hr
in
rain mn
in
humidity
%
barometer
mb
20260504204553 68 262 1.7 8.7 0.00 0.00 0.00 44 1010.7
20260504203055 69 223 1.7 9.6 0.00 0.00 0.00 38 1010.6
20260504201547 71 271 1.7 5.2 0.00 0.00 0.00 38 1010.6
20260504200046 71 263 0.9 8.7 0.00 0.00 0.00 35 1010.7
20260504194548 72 286 0.9 7.0 0.00 0.00 0.00 35 1010.8
20260504193042 73 269 1.7 13.0 0.00 0.00 0.00 35 1010.9
20260504191549 72 282 0.9 10.4 0.00 0.00 0.00 36 1011.1
20260504190039 72 286 2.6 9.6 0.00 0.00 0.00 35 1011.3
20260504184537 72 284 0.9 7.0 0.00 0.00 0.00 34 1011.4
20260504183034 73 55 1.7 7.0 0.00 0.00 0.00 32 1011.5
20260504181532 72 261 0.9 5.2 0.00 0.00 0.00 36 1011.8
20260504180030 71 315 0.9 7.0 0.00 0.00 0.00 34 1012.1
20260504174526 71 204 0.9 9.6 0.00 0.00 0.00 36 1012.2
20260504173023 70 284 0.9 6.1 0.00 0.00 0.00 36 1012.4
20260504171530 70 282 2.6 7.8 0.00 0.00 0.00 34 1012.5
20260504100104 42 241 0.0 0.0 0.00 0.00 0.00 80 1015.2
20260504090106 41 16 0.0 0.0 0.00 0.00 0.00 86 1014.9
20260504081550 39 336 0.0 0.0 0.00 0.00 0.00 90 1014.6
20260504050024 38 331 0.0 0.0 0.00 0.00 0.00 85 1014.1
20260504044524 38 331 0.0 0.0 0.00 0.00 0.00 83 1014.0
20260504043030 38 331 0.0 0.0 0.00 0.00 0.00 83 1014.0
20260504041521 39 331 0.0 0.0 0.00 0.00 0.00 82 1013.8
20260504040018 39 331 0.0 0.0 0.00 0.00 0.00 81 1013.8
20260504034513 40 331 0.0 0.0 0.00 0.00 0.00 79 1013.9
20260504033014 40 331 0.0 0.0 0.00 0.00 0.00 78 1013.8
20260504031510 41 331 0.0 0.0 0.00 0.00 0.00 76 1013.9
20260504030012 41 331 0.0 0.0 0.00 0.00 0.00 74 1013.7
20260504024505 42 331 0.0 0.0 0.00 0.00 0.00 73 1013.8
20260504023003 42 331 0.0 0.0 0.00 0.00 0.00 70 1013.8
20260504021501 43 331 0.0 0.0 0.00 0.00 0.00 68 1013.7
20260504020100 44 331 0.0 0.0 0.00 0.00 0.00 67 1013.7
20260504014559 45 331 0.0 0.0 0.00 0.00 0.00 64 1013.6
20260504013116 46 331 0.0 0.0 0.00 0.00 0.00 59 1013.5
20260504011557 47 331 0.0 0.0 0.00 0.00 0.00 55 1013.4
20260504010101 48 331 0.0 0.0 0.00 0.00 0.00 51 1013.1
20260504004606 49 331 0.0 0.0 0.00 0.00 0.00 50 1012.9
20260504003053 50 331 0.0 0.0 0.00 0.00 0.00 50 1012.7
20260504001552 52 331 0.0 0.0 0.00 0.00 0.00 50 1012.4
20260504000056 53 331 0.0 0.0 0.00 0.00 0.00 52 1012.3
20260503234551 54 331 0.0 0.0 0.00 0.00 0.00 52 1012.0
20260503233052 56 331 0.0 1.7 0.00 0.00 0.00 35 1011.8
20260503231549 56 57 0.0 0.9 0.00 0.00 0.00 36 1011.7
20260503230055 56 92 0.0 1.7 0.00 0.00 0.00 35 1011.5
20260503224549 56 116 0.0 2.6 0.00 0.00 0.00 31 1011.4
20260503223049 57 115 0.0 4.3 0.00 0.00 0.00 32 1011.4
20260503221546 57 11 0.9 4.3 0.00 0.00 0.00 33 1011.4
20260503220047 57 284 0.0 7.8 0.00 0.00 0.00 31 1011.3
20260503214547 58 285 0.9 6.1 0.00 0.00 0.00 32 1011.3
20260503213046 57 265 0.9 5.2 0.00 0.00 0.00 36 1011.1
20260503211544 57 5 0.9 5.2 0.00 0.00 0.00 30 1011.2
20260503210044 57 274 1.7 16.5 0.00 0.00 0.00 33 1011.3